Temp
64 64 64 64 63 63 63 63 62 63 63 63 63 63 62 62 63 63 64 64 63 64 63 63 62 61 59 52 56 70 68 69 71 72 71 71 69 69 64 66 68 62 60 62 63 64 64
63 63 63 63 63 63 63 62 62 62 62 63 63 62 63 62 63 63 63 64 63 63 63 63 64 63 60 49 68 70 69 70 73 73 71 75 72 73 68 64 65 64 63 61 63 62 63
63 63 63 63 63 63 63 62 61 62 62 62 62 61 62 62 62 62 62 63 63 62 63 63 63 67 59 54 69 72 72 69 71 75 68 72 73 71 69 61 67 65 58 61 61 61 61
64 63 62 62 62 62 62 62 61 61 61 61 61 62 61 61 61 62 62 62 62 62 63 63 64 66 54 68 74 71 76 72 75 75 71 73 75 67 67 67 64 61 63 55 59 61 60
63 63 62 62 62 62 62 62 61 61 61 61 61 61 61 61 60 61 61 62 63 63 63 65 66 66 55 71 64 70 72 69 71 72 72 74 71 64 64 61 58 58 53 55 55 60 59
63 63 62 62 62 62 62 62 61 61 60 60 60 60 60 61 60 60 61 62 63 67 68 67 69 60 61 56 63 67 72 71 69 69 67 67 66 61 63 60 49 54 55 57 57 57 59
63 63 62 62 62 61 61 61 61 61 60 59 59 59 60 60 60 61 64 64 62 58 61 55 58 57 58 64 69 67 69 69 70 67 58 60 54 49 56 56 59 63 59 57 56 55 54
63 62 62 62 62 61 61 61 60 60 59 59 58 59 59 60 60 60 65 60 56 59 52 61 62 60 62 63 61 63 71 63 63 54 60 57 47 52 55 56 58 59 57 55 54 54 54
62 62 62 61 61 61 61 60 60 60 59 58 58 58 59 60 60 63 61 56 62 62 56 56 60 57 57 64 56 57 64 61 59 57 58 53 50 53 56 55 55 54 55 52 50 54 55
62 62 62 61 61 61 60 60 60 59 58 57 58 58 58 59 61 63 58 61 63 63 46 45 54 58 62 61 55 64 63 59 56 51 54 51 53 53 53 51 53 50 52 51 50 50 44
62 62 61 61 61 60 60 60 60 59 58 57 57 58 58 60 63 62 58 63 64 61 32 51 53 66 63 57 57 58 64 63 53 52 53 45 50 51 50 47 52 47 51 50 49 49 42
61 61 61 61 61 60 60 60 59 59 58 57 57 58 58 64 66 59 62 63 62 41 30 38 53 52 55 57 56 60 60 62 58 55 54 49 54 52 50 51 52 52 50 50 50 49 35
61 61 61 61 61 60 59 59 59 59 58 56 57 57 61 65 60 62 62 61 40 35 45 42 47 52 52 50 52 54 53 52 49 41 45 49 48 51 53 49 51 50 48 39 37 34 40
61 60 60 61 61 61 59 59 59 59 57 56 56 57 58 62 63 62 60 54 34 39 43 49 49 52 48 50 50 52 51 50 53 53 49 42 36 48 51 49 47 49 47 39 32 38 41
60 60 60 60 60 60 59 59 59 58 57 56 55 63 63 60 61 62 57 39 40 45 49 48 49 48 46 49 51 51 50 49 50 53 46 46 40 49 49 51 50 46 43 47 34 38 35
60 60 60 60 60 59 59 59 58 58 57 56 63 62 59 60 61 58 52 41 45 50 51 51 46 48 46 48 48 50 49 51 49 52 55 49 40 47 48 51 50 48 50 40 41 31 33
60 60 60 60 59 58 58 58 58 58 57 56 61 60 58 60 59 58 40 43 47 51 52 50 48 47 49 48 49 48 48 49 52 50 54 52 46 42 46 45 47 43 43 45 44 43 37
59 60 60 59 58 58 58 58 58 57 56 56 60 55 59 59 53 54 47 50 49 50 53 51 52 51 50 49 48 48 48 50 55 54 48 51 49 41 46 49 51 51 49 50 41 39 43
59 59 59 59 58 58 57 57 57 57 56 57 60 60 60 58 49 49 49 48 51 50 51 50 49 51 52 50 46 49 49 52 54 52 50 52 46 39 41 44 46 44 48 49 50 44 38
59 59 59 59 58 58 57 57 57 57 56 58 61 52 58 61 59 55 50 48 47 51 51 52 51 53 50 49 51 48 49 50 52 52 48 51 47 44 40 43 47 42 45 48 46 37 42
59 59 58 58 58 58 57 56 56 56 56 59 57 51 51 48 52 53 53 50 48 46 51 52 49 51 51 47 48 47 50 49 50 49 51 50 40 40 44 46 47 45 44 47 41 43 41
59 58 57 57 57 57 57 56 56 55 55 62 55 55 52 53 51 51 48 49 48 49 49 48 46 51 52 49 51 48 51 51 50 50 49 50 41 42 39 48 47 41 45 46 46 47 46
57 57 57 57 57 57 57 56 55 55 58 59 57 57 55 46 50 51 51 50 49 50 51 52 51 50 48 52 56 57 58 57 56 51 48 47 42 40 36 43 42 38 46 47 47 48 48
57 56 57 57 56 56 56 56 56 55 57 60 56 56 54 51 50 51 49 49 49 50 48 51 52 50 52 57 56 55 55 54 53 52 54 47 44 42 35 40 30 47 53 50 48 51 53
56 56 56 56 56 56 56 56 56 56 55 60 58 56 54 49 52 50 48 49 50 52 49 51 53 55 56 53 47 45 45 42 42 43 47 48 46 39 34 36 42 49 46 46 44 47 56
56 55 56 56 56 56 56 56 56 56 55 60 58 57 55 50 51 52 49 50 50 50 49 49 52 55 53 50 46 38 39 43 39 35 40 43 45 41 37 29 30 44 48 51 49 43 54
56 55 55 55 55 56 56 56 56 55 55 58 58 57 56 49 54 51 49 49 52 50 48 49 49 48 51 45 40 39 40 45 39 38 32 33 35 34 36 33 40 49 51 50 38 45 55
55 55 54 54 55 55 55 55 55 55 55 55 56 57 55 48 53 52 54 50 49 49 45 49 47 46 44 41 42 43 41 44 40 45 39 38 35 33 36 32 29 53 46 43 51 56 56
54 54 53 53 54 54 54 55 55 55 55 53 51 54 53 45 51 53 56 57 56 55 51 50 49 47 50 44 45 46 40 42 42 37 45 36 45 43 42 42 55 54 54 57 58 54 55
MSLP
1020.87 1020.47 1019.99 1019.52 1019.12 1018.57 1017.92 1017.10 1016.57 1015.77 1015.23 1014.53 1013.84 1013.15 1013.12 1012.82 1012.49 1012.11 1011.70 1011.90 1012.10 1011.93 1012.12 1012.35 1012.86 1013.07 1013.32 1012.98 1012.52 1012.35 1011.89 1011.92 1011.49 1011.35 1010.69 1010.31 1009.88 1009.65 1009.82 1010.65 1010.95 1011.61 1012.74 1013.22 1013.59 1013.61 1013.48
1021.23 1020.77 1020.33 1019.86 1019.42 1018.96 1018.26 1017.58 1016.96 1016.25 1015.54 1015.14 1014.52 1013.81 1013.53 1013.48 1013.04 1012.76 1012.49 1012.44 1012.71 1012.76 1012.97 1013.02 1013.15 1012.97 1012.77 1012.57 1012.73 1012.24 1011.92 1011.85 1011.14 1010.91 1010.70 1010.20 1010.01 1010.05 1010.56 1011.10 1011.15 1012.27 1012.98 1013.53 1013.93 1014.05 1014.11
1021.41 1021.07 1020.68 1020.19 1019.76 1019.21 1018.61 1018.01 1017.28 1016.71 1015.94 1015.63 1015.23 1014.73 1013.90 1013.90 1013.97 1013.47 1013.19 1013.27 1013.64 1013.57 1013.20 1013.11 1013.10 1012.78 1012.36 1013.27 1012.96 1012.30 1011.84 1011.86 1011.59 1010.84 1011.15 1011.26 1011.21 1010.75 1011.05 1011.52 1012.34 1012.58 1013.14 1013.58 1014.14 1014.44 1014.31
1021.61 1021.29 1021.00 1020.46 1019.96 1019.50 1018.89 1018.37 1017.73 1017.15 1016.49 1016.00 1015.89 1015.43 1014.94 1014.48 1014.51 1014.21 1014.08 1014.01 1014.12 1013.86 1013.49 1013.36 1013.17 1012.74 1012.78 1013.42 1012.81 1012.42 1011.58 1011.67 1011.57 1011.60 1011.74 1012.04 1011.74 1011.74 1011.42 1012.19 1012.51 1012.32 1012.70 1013.08 1014.15 1014.52 1014.62
1021.97 1021.53 1021.16 1020.68 1020.21 1019.70 1019.21 1018.62 1018.11 1017.59 1017.04 1016.39 1016.46 1016.10 1015.75 1015.28 1015.12 1014.75 1014.48 1014.29 1014.10 1013.87 1013.83 1013.52 1013.08 1012.21 1012.81 1013.04 1013.01 1013.05 1012.50 1012.08 1012.05 1012.09 1012.10 1012.17 1012.17 1012.19 1012.48 1011.78 1012.02 1012.25 1012.02 1012.79 1013.85 1014.58 1014.62
1022.22 1021.78 1021.39 1020.85 1020.39 1019.96 1019.51 1018.97 1018.36 1017.94 1017.51 1016.93 1016.66 1016.52 1016.25 1015.83 1015.61 1015.30 1014.74 1014.42 1014.07 1013.47 1013.28 1013.18 1012.80 1012.76 1013.77 1013.97 1013.77 1013.26 1013.02 1012.83 1012.31 1012.08 1012.04 1012.30 1012.18 1012.21 1012.01 1011.82 1011.41 1011.39 1011.82 1012.65 1013.16 1014.41 1014.41
1022.45 1022.08 1021.64 1021.12 1020.62 1020.15 1019.73 1019.29 1018.64 1018.17 1017.77 1017.29 1017.04 1016.76 1016.49 1016.38 1016.23 1015.88 1015.10 1014.57 1014.41 1014.65 1014.39 1014.70 1014.11 1014.04 1014.48 1014.57 1013.77 1013.48 1013.43 1012.73 1012.31 1011.99 1012.44 1012.98 1012.65 1013.02 1013.19 1013.39 1012.51 1011.34 1012.00 1012.50 1013.93 1015.01 1014.76
1022.69 1022.30 1021.84 1021.38 1020.86 1020.43 1019.99 1019.47 1019.02 1018.46 1018.01 1017.60 1017.21 1017.00 1016.75 1016.52 1016.59 1016.41 1015.64 1015.03 1015.83 1016.06 1015.43 1015.04 1014.89 1015.03 1015.13 1014.85 1013.70 1013.89 1013.40 1012.80 1012.35 1012.88 1013.17 1013.48 1014.41 1015.14 1014.86 1014.25 1013.30 1012.85 1012.87 1013.41 1014.50 1015.14 1014.99
1023.03 1022.59 1022.15 1021.63 1021.10 1020.63 1020.25 1019.77 1019.14 1018.75 1018.34 1017.83 1017.41 1017.10 1016.93 1016.62 1016.48 1016.22 1016.51 1017.20 1016.92 1016.41 1015.42 1015.57 1015.37 1015.41 1015.67 1015.08 1014.95 1014.93 1014.49 1014.25 1013.60 1013.36 1013.66 1014.14 1015.93 1016.02 1015.23 1014.82 1014.24 1014.41 1013.90 1014.48 1015.14 1015.27 1015.13
1023.11 1022.74 1022.30 1021.89 1021.38 1020.85 1020.38 1020.01 1019.48 1018.87 1018.44 1018.10 1017.66 1017.28 1016.90 1016.63 1016.66 1016.42 1016.43 1016.86 1016.92 1016.71 1015.90 1016.80 1015.90 1016.05 1015.68 1015.32 1015.39 1015.71 1015.73 1015.52 1014.91 1015.04 1015.10 1015.85 1016.78 1016.34 1015.93 1015.79 1015.83 1015.38 1016.17 1015.95 1015.95 1015.64 1015.21
1023.11 1022.81 1022.44 1022.05 1021.61 1021.07 1020.53 1020.05 1019.69 1019.20 1018.51 1018.13 1017.92 1017.46 1017.24 1016.65 1016.47 1016.41 1017.25 1016.89 1016.53 1016.00 1016.54 1017.22 1016.45 1016.28 1015.79 1015.47 1016.12 1015.92 1016.02 1015.18 1015.46 1015.73 1015.98 1017.26 1017.13 1016.87 1016.79 1017.38 1016.99 1017.17 1017.09 1016.87 1016.61 1016.10 1016.28
1023.39 1022.92 1022.45 1022.05 1021.71 1021.32 1020.72 1020.10 1019.64 1019.25 1018.80 1018.21 1017.97 1017.79 1017.32 1016.79 1016.74 1017.63 1017.33 1016.70 1016.10 1016.21 1017.66 1017.77 1016.96 1016.38 1015.76 1015.91 1016.13 1016.01 1015.93 1016.08 1016.65 1016.25 1016.60 1017.54 1018.07 1017.98 1018.10 1018.19 1017.93 1017.82 1017.44 1017.19 1016.96 1016.54 1016.27
1023.53 1022.97 1022.50 1022.07 1021.62 1021.29 1020.89 1020.22 1019.69 1019.22 1018.86 1018.48 1018.23 1017.96 1017.58 1017.41 1017.44 1017.83 1017.52 1016.60 1016.39 1016.75 1018.64 1017.83 1017.26 1016.73 1016.23 1016.41 1016.34 1016.28 1016.16 1016.27 1016.49 1016.61 1016.63 1017.54 1018.18 1018.68 1018.73 1018.28 1018.41 1018.15 1017.50 1017.13 1017.01 1016.88 1015.69
1023.46 1023.03 1022.54 1022.06 1021.55 1021.12 1020.85 1020.33 1019.74 1019.25 1018.87 1018.56 1018.53 1018.34 1018.32 1018.11 1018.13 1017.93 1017.50 1016.68 1016.75 1018.15 1018.03 1018.05 1017.52 1016.82 1016.53 1016.82 1016.76 1016.55 1016.33 1016.35 1016.91 1016.64 1016.62 1017.35 1018.60 1018.90 1019.21 1018.82 1018.47 1018.16 1018.13 1017.89 1017.30 1016.44 1015.69
1023.50 1023.07 1022.62 1022.15 1021.64 1021.15 1020.77 1020.31 1019.72 1019.22 1018.94 1018.64 1018.69 1018.25 1018.08 1018.53 1018.59 1018.22 1017.46 1017.12 1017.71 1017.71 1017.99 1017.74 1017.56 1016.77 1016.84 1016.99 1016.74 1016.53 1016.65 1016.75 1017.28 1017.27 1017.00 1017.25 1018.51 1019.40 1019.52 1019.41 1019.43 1018.86 1018.70 1018.94 1018.36 1017.60 1016.65
1023.53 1023.09 1022.74 1022.29 1021.79 1021.29 1020.70 1020.30 1019.77 1019.10 1018.78 1018.68 1017.97 1017.86 1018.23 1018.86 1018.89 1018.31 1017.49 1017.94 1018.29 1018.34 1018.17 1017.78 1017.00 1017.09 1016.35 1016.65 1016.57 1016.46 1016.80 1017.51 1017.72 1017.93 1017.81 1017.66 1018.23 1019.27 1019.62 1019.76 1019.71 1019.28 1019.26 1018.83 1018.36 1017.49 1015.76
1023.72 1023.32 1022.82 1022.41 1021.94 1021.38 1020.74 1020.24 1019.76 1019.17 1018.75 1018.49 1017.89 1017.46 1018.66 1018.91 1018.85 1017.71 1017.76 1018.47 1018.71 1018.86 1018.58 1017.90 1017.27 1016.90 1016.69 1016.56 1016.58 1016.61 1017.04 1017.93 1018.04 1018.25 1018.23 1018.05 1018.28 1019.34 1019.58 1018.91 1018.25 1019.27 1018.80 1018.74 1018.41 1017.47 1016.01
1023.75 1023.36 1022.95 1022.52 1022.06 1021.59 1020.86 1020.26 1019.79 1019.26 1018.70 1018.57 1017.64 1017.27 1018.39 1018.88 1018.08 1017.53 1017.97 1018.33 1018.89 1018.90 1018.76 1018.22 1017.79 1017.19 1016.78 1016.96 1016.82 1016.89 1017.07 1017.66 1018.26 1018.49 1018.30 1018.46 1018.20 1018.03 1017.97 1018.52 1018.65 1018.18 1017.83 1017.70 1017.43 1016.91 1016.31
1023.72 1023.45 1023.02 1022.60 1022.04 1021.65 1021.13 1020.43 1019.82 1019.51 1019.19 1018.81 1017.47 1017.44 1017.87 1018.03 1017.35 1017.55 1018.47 1018.59 1018.57 1018.59 1018.46 1018.30 1017.86 1017.70 1017.43 1016.99 1017.10 1017.29 1017.64 1018.39 1018.60 1018.68 1018.63 1018.64 1018.35 1017.89 1017.88 1018.70 1018.81 1018.35 1017.75 1017.65 1017.30 1017.35 1015.83
1023.69 1023.39 1023.01 1022.59 1022.25 1021.71 1021.32 1020.75 1019.89 1019.41 1019.28 1019.02 1017.76 1017.25 1017.17 1017.15 1017.79 1017.45 1018.01 1018.27 1018.47 1018.80 1018.48 1018.35 1018.03 1017.86 1017.51 1017.23 1017.36 1017.29 1017.67 1018.55 1018.87 1019.01 1019.41 1019.28 1018.62 1018.20 1017.76 1017.69 1017.86 1017.71 1017.38 1017.37 1017.17 1016.49 1014.49
1023.47 1023.17 1022.93 1022.69 1022.25 1021.99 1021.45 1021.04 1020.24 1019.38 1018.99 1019.09 1018.33 1018.58 1018.70 1017.85 1017.77 1017.87 1017.98 1018.31 1018.47 1018.52 1018.64 1018.46 1018.09 1017.72 1017.24 1017.06 1017.16 1017.16 1017.48 1018.36 1018.98 1019.35 1019.46 1019.32 1018.83 1018.52 1018.16 1017.82 1017.54 1017.17 1016.98 1016.72 1016.40 1015.45 1014.29
1023.17 1022.97 1022.72 1022.46 1022.29 1022.05 1021.78 1021.30 1020.79 1019.69 1018.51 1018.62 1019.37 1019.01 1019.14 1018.63 1018.57 1018.12 1018.30 1018.22 1018.28 1018.53 1018.70 1018.47 1018.37 1017.91 1017.76 1017.24 1016.87 1016.88 1017.17 1017.48 1017.70 1019.03 1019.23 1019.41 1019.07 1018.87 1018.06 1017.06 1016.90 1016.38 1015.70 1015.36 1014.97 1014.58 1013.63
1022.98 1022.90 1022.53 1022.26 1022.12 1022.05 1021.78 1021.59 1021.16 1020.40 1018.83 1018.98 1019.91 1020.26 1019.61 1018.75 1018.25 1018.22 1018.17 1018.28 1018.39 1018.65 1018.69 1018.66 1018.57 1018.41 1018.37 1018.21 1017.89 1017.58 1017.35 1017.41 1017.54 1018.03 1018.55 1019.00 1019.03 1018.72 1017.43 1017.09 1016.65 1014.98 1013.56 1013.68 1013.57 1013.63 1013.20
1022.75 1022.67 1022.51 1022.09 1021.86 1021.78 1021.79 1021.68 1021.53 1021.09 1020.47 1019.89 1020.04 1020.06 1019.81 1018.79 1018.23 1017.80 1018.22 1018.59 1018.72 1018.75 1018.74 1018.73 1018.95 1018.78 1018.91 1018.70 1018.52 1018.22 1017.92 1017.87 1018.11 1018.38 1018.50 1018.55 1019.00 1018.97 1017.72 1017.08 1015.56 1013.62 1013.34 1013.41 1013.05 1012.36 1011.91
1022.63 1022.40 1022.41 1022.25 1021.82 1021.48 1021.39 1021.52 1021.69 1021.46 1021.23 1020.62 1020.67 1020.02 1019.66 1019.19 1019.23 1018.56 1018.01 1018.18 1018.49 1018.75 1019.14 1018.99 1018.93 1019.18 1019.26 1018.94 1018.55 1017.80 1017.84 1018.32 1018.37 1018.84 1018.97 1019.39 1019.02 1018.69 1017.99 1016.67 1014.61 1012.68 1013.55 1013.48 1013.19 1011.88 1010.99
1022.66 1022.51 1022.14 1022.02 1021.99 1021.64 1021.12 1021.05 1021.34 1021.43 1021.41 1020.88 1021.20 1021.19 1020.16 1019.50 1018.83 1019.40 1019.41 1018.30 1017.77 1017.98 1018.54 1019.02 1019.54 1019.65 1019.54 1018.95 1018.73 1018.03 1017.14 1017.29 1018.18 1019.41 1019.92 1019.71 1019.69 1019.08 1018.10 1017.36 1015.28 1013.67 1013.61 1013.62 1013.52 1011.95 1011.42
1022.43 1022.38 1022.35 1022.02 1021.74 1021.70 1021.40 1021.23 1021.09 1021.20 1021.25 1021.03 1021.02 1021.34 1020.87 1019.96 1019.21 1019.50 1019.23 1019.39 1019.00 1018.42 1018.26 1018.73 1019.27 1019.61 1019.61 1018.91 1018.68 1018.21 1017.36 1017.35 1017.50 1017.97 1019.27 1019.56 1019.41 1018.49 1017.90 1016.82 1014.82 1013.22 1013.44 1013.94 1013.33 1012.59 1011.72
1021.93 1022.00 1022.10 1021.92 1021.73 1021.61 1021.42 1021.43 1021.31 1021.27 1021.12 1021.26 1021.04 1021.42 1021.12 1020.80 1019.62 1019.78 1019.62 1019.22 1019.37 1019.38 1018.73 1019.01 1019.14 1019.15 1019.40 1018.89 1018.13 1017.67 1017.71 1017.60 1017.59 1017.03 1017.50 1017.60 1017.66 1017.41 1017.13 1016.28 1014.69 1012.90 1013.77 1013.50 1012.73 1012.09 1012.01
1021.78 1021.67 1021.60 1021.64 1021.46 1021.46 1021.49 1021.47 1021.40 1021.25 1021.05 1021.11 1021.35 1021.81 1021.94 1021.58 1020.38 1020.05 1019.81 1019.53 1019.22 1018.84 1019.07 1019.01 1018.79 1018.93 1018.70 1018.64 1018.42 1018.00 1018.00 1017.72 1017.22 1016.85 1017.09 1016.83 1015.71 1015.50 1015.16 1013.74 1012.82 1013.16 1012.83 1012.51 1012.29 1012.08 1011.94
Wind_Speed
18 18 19 19 20 20 21 23 24 25 27 26 26 21 17 16 11 11 9 11 15 15 20 22 24 21 7 1 8 9 9 4 5 7 12 15 16 9 14 9 11 10 7 7 6 5 4
18 19 18 19 19 20 20 21 22 23 24 24 24 24 19 14 13 11 11 10 16 15 13 12 15 7 4 11 8 10 5 1 6 10 7 14 8 7 10 7 4 9 11 9 5 5 5
17 19 19 19 19 19 19 19 21 21 21 22 22 20 21 19 17 16 16 16 15 12 8 3 2 4 16 10 6 7 3 2 1 10 8 8 4 4 11 12 11 13 10 8 5 3 2
20 19 19 19 19 19 19 19 18 19 20 19 19 16 15 16 18 14 14 12 9 11 11 6 8 2 8 4 6 12 11 10 11 14 14 8 10 9 5 14 7 6 5 6 5 3 2
19 18 18 18 19 19 19 18 18 18 18 18 17 16 12 11 11 9 7 8 10 8 8 6 4 3 8 5 7 10 11 9 10 10 9 5 5 6 6 10 8 4 7 5 5 1 4
20 20 19 19 18 19 19 18 18 17 16 16 16 15 14 7 7 8 10 6 10 9 5 3 3 5 8 7 6 6 7 5 6 9 9 3 3 6 6 8 6 9 5 6 6 3 5
19 19 19 20 20 19 18 18 17 17 16 14 14 13 10 10 5 7 6 5 3 7 17 13 12 14 6 8 3 12 6 4 4 6 8 4 7 6 9 5 5 4 3 7 3 2 5
20 20 21 20 20 20 20 18 17 16 16 13 13 12 10 6 7 6 7 4 6 4 13 14 14 10 6 5 9 17 13 4 3 9 9 6 8 5 3 2 4 3 5 4 3 2 6
18 19 21 20 21 20 20 19 18 16 15 14 11 11 12 7 8 3 9 7 7 6 4 9 8 8 5 9 8 12 11 5 8 9 6 5 7 2 2 4 4 7 4 4 3 6 5
16 17 19 20 21 20 20 19 18 18 17 14 10 9 11 9 4 2 4 7 5 4 4 10 8 7 7 4 6 8 7 4 5 8 9 9 3 3 4 7 7 2 6 3 4 5 4
15 17 17 18 18 19 19 20 19 17 18 14 9 7 7 9 5 3 4 5 6 5 4 10 6 5 6 6 2 11 5 7 7 6 4 3 4 5 6 4 6 6 3 3 3 5 4
16 16 16 15 18 18 19 19 19 17 16 13 7 5 4 1 2 4 6 7 4 2 5 4 5 6 3 10 5 3 5 6 3 9 14 9 2 5 4 5 6 5 2 4 3 3 3
13 15 15 15 18 17 17 19 19 18 16 9 4 7 3 2 3 4 5 4 3 5 1 1 4 3 6 6 6 4 6 6 3 3 3 5 5 3 2 1 2 2 3 2 2 2 3
12 13 15 15 16 17 17 18 19 20 17 3 1 4 5 5 2 3 3 2 6 0 2 1 1 4 3 2 3 2 2 5 6 3 3 3 2 1 3 4 5 1 3 3 5 2 4
13 14 14 15 16 17 19 19 20 20 17 3 4 2 1 3 2 1 3 4 3 3 5 3 3 2 2 1 1 2 3 3 2 4 2 2 3 3 3 2 4 4 3 3 2 2 4
13 13 14 15 16 16 18 20 20 21 19 2 3 4 3 1 2 3 2 4 2 2 3 1 1 3 2 4 3 3 3 2 2 2 5 2 2 1 3 2 1 4 2 2 2 4 5
12 13 14 15 15 15 16 19 20 21 20 2 3 3 3 3 4 3 4 5 4 2 3 3 1 2 2 2 1 2 3 3 0 2 3 1 1 5 3 8 5 4 4 4 4 3 5
11 13 14 15 15 15 16 17 19 20 22 7 2 1 4 4 1 3 3 4 1 4 2 1 2 2 1 1 1 1 1 3 3 3 1 2 3 3 1 4 3 6 7 9 4 5 6
11 13 14 14 15 15 17 17 17 19 17 6 2 2 4 4 3 4 3 3 1 5 3 2 2 1 1 2 1 1 2 2 3 2 2 2 2 3 4 4 3 6 10 10 8 4 12
11 12 13 13 16 15 15 16 17 17 18 3 3 1 3 3 1 4 2 2 3 1 2 2 1 2 3 4 3 2 3 2 3 2 2 1 4 7 7 7 4 5 8 13 14 7 9
11 11 13 14 14 15 14 14 16 17 16 3 4 3 2 2 5 4 0 1 1 3 2 3 4 7 5 4 4 4 3 4 4 5 3 4 5 2 11 13 13 16 17 16 20 22 14
10 11 13 13 13 12 13 12 14 16 15 3 5 2 2 2 0 1 0 1 2 0 2 2 4 2 6 4 2 2 4 5 5 8 6 5 3 4 7 12 10 17 21 23 24 24 24
8 11 13 13 11 11 11 11 11 15 10 3 2 2 6 2 3 2 2 1 1 1 3 2 3 4 5 7 9 9 6 4 4 6 9 6 4 3 5 3 14 17 9 12 18 19 18
8 9 12 12 10 9 10 8 9 9 9 1 2 1 4 2 3 4 4 1 3 4 3 1 3 4 3 2 4 5 6 8 9 10 9 6 7 4 6 9 6 3 6 3 8 13 18
9 8 11 13 10 8 7 5 6 5 7 3 1 0 0 4 6 6 8 5 4 5 5 6 4 3 3 2 4 4 4 4 4 1 8 8 8 5 4 5 15 6 4 2 3 5 5
10 9 9 10 12 10 7 5 4 2 2 2 2 2 1 2 1 4 6 5 5 5 5 4 3 0 3 2 3 4 4 1 4 3 1 6 9 8 3 5 5 5 3 2 3 3 6
9 9 10 10 10 9 7 5 4 3 2 2 1 1 2 3 1 2 3 5 2 0 2 3 4 4 3 4 4 5 5 1 4 4 6 5 6 14 11 7 9 6 3 1 3 4 2
6 5 6 7 8 5 3 4 5 4 4 3 2 1 2 2 5 4 3 4 2 3 3 4 3 4 4 6 5 5 4 3 3 0 5 8 8 6 7 7 11 7 6 4 6 5 9
6 4 2 2 3 3 4 4 4 5 5 6 1 2 0 2 4 1 8 9 7 6 3 2 5 0 2 4 3 2 4 4 5 4 5 6 8 3 10 7 2 3 12 12 14 15 14
Wind_Direction
19 17 14 11 9 6 4 359 2 3 6 11 25 44 49 52 59 61 81 92 103 114 123 131 140 150 147 322 32 338 359 8 130 169 161 167 166 155 156 122 106 102 112 89 86 87 61
23 18 14 10 8 5 8 4 3 6 7 15 25 44 69 47 47 59 72 91 94 93 118 140 153 179 203 76 332 354 16 343 107 145 153 172 148 105 109 97 33 112 110 102 73 70 54
25 22 15 11 11 8 5 8 0 7 8 16 22 38 65 70 64 60 64 85 75 59 50 38 290 165 68 50 15 6 71 29 6 130 101 44 66 232 136 102 108 126 109 117 72 29 65
21 26 19 13 12 11 8 8 4 8 7 14 23 22 46 74 76 64 62 46 45 21 18 345 315 183 72 20 41 35 91 84 81 88 95 62 97 77 65 120 125 126 168 162 93 335 130
22 26 21 16 13 12 12 7 7 9 10 5 23 16 14 45 63 82 64 29 3 340 332 315 284 60 59 328 30 18 30 74 96 90 76 102 76 88 144 147 135 192 173 206 151 65 292
24 24 20 17 19 13 9 8 3 7 11 6 9 17 16 360 24 22 7 340 324 20 318 168 332 88 31 9 348 329 38 29 90 123 98 69 111 138 154 184 176 171 157 191 205 83 260
24 22 21 17 16 15 11 7 2 2 4 5 7 10 17 15 358 346 318 287 69 36 49 57 61 79 55 329 227 38 353 329 110 165 126 24 107 86 69 360 340 133 158 181 87 15 287
21 20 20 17 16 14 14 8 4 0 357 2 0 5 3 7 15 326 273 68 28 4 73 47 61 80 64 322 64 19 358 45 142 106 133 119 94 87 86 65 81 163 159 113 122 347 299
17 17 17 15 15 13 13 10 5 3 359 351 355 357 354 331 325 317 68 60 342 326 74 36 37 27 351 351 42 14 9 19 46 97 115 90 85 98 120 100 117 59 7 56 1 309 233
13 15 19 13 14 10 8 10 8 358 357 353 342 360 360 327 290 8 30 341 311 279 97 7 8 40 357 340 66 19 18 351 48 68 60 64 59 86 89 75 344 140 27 21 351 341 288
8 12 13 16 10 9 5 3 5 4 351 349 340 353 16 17 340 328 351 315 317 252 79 349 7 326 354 51 349 31 11 48 67 48 250 85 84 71 68 29 345 59 10 358 324 306 350
4 3 5 8 8 6 3 359 358 3 359 344 346 346 311 296 56 14 323 310 294 21 76 338 349 1 93 43 55 54 63 64 4 68 66 86 78 25 52 64 43 103 281 261 270 289 257
357 351 353 359 6 4 358 356 354 360 1 348 355 38 5 317 22 344 311 261 11 40 174 60 54 41 72 42 62 51 60 58 50 74 95 121 52 80 352 146 122 276 286 291 238 221 283
341 344 346 352 358 358 357 355 352 353 359 22 327 282 33 45 75 336 282 255 58 70 52 51 56 99 77 353 65 60 134 110 66 353 137 160 166 17 22 9 352 35 322 296 274 296 338
332 339 344 349 352 354 351 355 352 353 359 123 187 146 84 51 355 305 249 58 87 120 128 158 167 207 104 102 300 181 55 70 50 1 348 206 106 120 45 355 315 110 216 42 328 160 265
331 337 340 348 350 350 351 350 354 354 355 199 198 191 72 94 245 230 69 90 78 47 125 182 330 300 148 120 208 221 180 77 115 344 325 117 149 205 127 220 124 302 86 208 179 290 282
334 335 341 345 346 346 348 351 352 357 356 285 216 234 94 183 221 225 80 66 102 106 339 319 109 137 60 121 298 116 81 119 266 137 326 192 265 133 205 204 182 162 207 215 301 251 288
333 336 340 337 339 342 344 352 353 360 350 269 259 15 134 181 145 62 64 97 113 152 203 162 314 15 24 142 146 148 114 56 147 183 227 58 303 230 241 93 315 272 240 221 245 179 244
327 325 325 330 332 341 340 345 356 1 12 316 19 25 156 207 33 70 113 104 126 164 188 202 161 302 331 166 236 274 163 93 164 212 0 108 222 265 183 179 193 235 217 232 251 308 246
306 313 319 321 324 334 339 341 349 1 3 313 297 45 33 70 27 65 95 146 148 176 170 208 150 209 186 184 186 160 193 124 174 210 39 344 276 263 289 1 342 233 224 215 213 222 240
297 304 315 316 317 324 333 342 342 355 1 326 356 60 4 30 49 38 93 37 242 199 244 223 206 239 206 191 203 215 183 163 182 160 191 259 262 295 277 279 272 259 259 244 228 236 252
293 306 309 309 311 319 326 339 340 349 343 52 337 297 194 101 268 257 146 154 222 211 253 226 265 313 228 252 267 175 199 212 207 178 202 190 269 297 277 270 271 274 261 252 247 250 252
295 304 308 309 310 312 324 333 346 354 340 77 81 321 297 163 152 254 60 129 192 203 171 273 278 276 265 297 323 307 283 295 288 196 203 197 236 279 270 337 303 278 268 256 236 243 249
283 301 310 308 304 307 316 324 341 15 11 28 78 224 294 285 231 171 165 174 246 238 286 122 237 254 50 322 292 266 260 255 261 252 252 219 229 257 281 294 241 34 254 250 293 264 240
269 292 309 308 299 292 301 297 321 12 9 7 49 221 193 289 314 242 192 187 202 225 244 257 218 8 326 264 273 274 202 237 218 330 259 250 237 272 263 273 296 290 55 78 359 289 292
267 282 296 305 298 287 277 245 278 336 37 321 30 321 279 308 148 359 296 207 193 180 179 178 155 255 221 257 242 251 239 311 193 169 30 212 258 238 173 265 268 60 141 142 329 257 38
253 271 295 313 302 289 284 257 260 253 184 290 75 257 289 278 89 194 250 296 342 236 249 155 166 170 208 190 221 232 251 10 244 215 167 163 206 224 233 253 274 268 240 157 289 57 94
221 251 277 321 311 300 300 295 289 273 200 234 63 199 277 286 284 226 252 238 259 261 255 118 206 194 188 214 213 202 243 205 274 185 186 189 191 195 204 227 258 148 105 215 9 326 316
212 209 230 315 329 357 15 348 300 311 232 178 198 48 30 184 295 302 274 271 261 263 276 206 324 13 260 234 228 249 218 204 236 250 188 243 220 238 208 216 324 190 279 292 294 300 301